Preview of NWS' New Version of Forecast
This preview is not operational and should not be used for support decisions.

Regional Weather Roundup (RWR)

Issued by National Weather Service (NWS)

                            
000
ASUS43 KLSX 220857
RWRMO 

WEATHER SUMMARY FOR MISSOURI
NATIONAL WEATHER SERVICE SPRINGFIELD MO
400 AM CDT WED MAY 22 2019

NOTE: "FAIR" INDICATES FEW OR NO CLOUDS BELOW 12,000 FEET WITH NO
       SIGNIFICANT WEATHER AND/OR OBSTRUCTIONS TO VISIBILITY.
       CURRENT SKY AND/OR WEATHER CONDITIONS ARE NOT AVAILABLE FOR
       CHILLICOTHE AND FARMINGTON.

MOZ001>031-035>038-043-044-053-054-221000-
...NORTHERN AND WESTERN MISSOURI...
  
CITY           SKY/WX    TMP DP  RH WIND       PRES   REMARKS
KANSAS CTY INT CLEAR     59  51  75 S10       29.56R                  
LEE'S SUMMIT   CLEAR     58  53  84 S12       29.58R                  
ST JOSEPH      CLEAR     59  51  75 S13       29.53R                  
CHILLICOTHE      N/A     59  53  80 VRB7      29.58R                  
     
$$
MOZ066>068-077>081-088>096-101>105-221000-
...SOUTHWEST MISSOURI...
  
CITY           SKY/WX    TMP DP  RH WIND       PRES   REMARKS
SPRINGFIELD    PTCLDY    57  51  80 SE17      29.69R                  
JOPLIN         CLOUDY    64  51  62 S17G29    29.63R                  
               
$$
MOZ032>034-039>042-045>050-055>058-069>072-221000-
...CENTRAL MISSOURI...  
  
CITY           SKY/WX    TMP DP  RH WIND       PRES   REMARKS
COLUMBIA       NOT AVBL                                               
JEFFERSON CITY CLEAR     59  53  80 SE8       29.69R                  
ROLLA          CLEAR     56  51  84 SE9       29.74R                  
SEDALIA        MOCLDY    56  51  84 S12       29.64R                  
WARRENSBURG    PTCLDY    59  52  77 S12       29.60R                  
               
$$
MOZ051-052-059>065-221000-
...EAST CENTRAL MISSOURI...
  
CITY           SKY/WX    TMP DP  RH WIND       PRES   REMARKS
ST LOUIS INTL  PTCLDY    60  56  86 S7        29.77R                  
                   
$$
MOZ072>076-082>087-097>100-106>115-221000-
...SOUTH CENTRAL AND SOUTHEAST MISSOURI...
  
CITY           SKY/WX    TMP DP  RH WIND       PRES   REMARKS
CAPE GIRARDEAU LGT RAIN  62  59  90 S12       29.83F                  
POPLAR BLUFF   CLOUDY    61  60  97 S8        29.82R                  
WEST PLAINS    CLEAR     55  53  93 SE5       29.79S                  
                                       
$$